Temperature
22 21 21 20 19 19 21 22 23 23 23 23 24 23 23 22 21 21 21 21 21 20 19 19 19 19 20 20 20 20 20 20 20 19 19 19 19 19 19 19 18 18 18 18 18 18 18 18 18
22 21 21 20 19 20 22 23 23 23 23 23 23 23 22 21 21 21 20 21 21 20 20 19 19 19 20 20 20 20 20 20 20 19 19 19 19 19 19 19 18 18 18 18 18 18 18 18 18
22 21 20 18 20 20 23 23 23 24 24 24 23 22 22 21 20 20 21 21 20 20 20 20 20 20 20 20 20 20 20 20 20 19 19 19 19 19 19 19 18 18 18 18 18 18 18 18 18
21 21 20 19 21 22 23 24 23 24 24 23 23 21 21 21 21 21 21 20 20 20 20 20 19 20 20 20 20 20 20 20 19 19 19 19 19 19 19 18 18 18 18 18 18 18 18 18 18
21 21 19 19 21 22 23 24 24 23 23 23 22 21 20 21 21 21 21 21 20 20 20 19 19 19 20 20 20 20 20 19 19 19 19 19 19 19 18 19 18 18 18 18 18 18 18 18 17
21 19 19 20 21 23 24 24 24 23 23 22 22 20 20 20 21 21 21 21 20 20 20 19 19 19 19 19 19 19 19 19 19 19 19 19 19 19 19 18 18 18 18 18 18 17 17 17 17
21 18 20 21 22 23 24 25 24 23 22 22 22 20 19 20 21 21 21 20 20 20 19 19 19 19 19 19 19 19 19 19 19 19 19 19 18 18 18 18 18 18 18 18 17 17 17 17 17
22 18 20 20 22 23 24 24 24 23 22 22 22 20 19 20 20 20 20 20 19 19 19 19 19 19 19 19 19 19 19 19 19 19 19 18 18 18 18 18 18 18 18 18 17 17 17 17 17
22 18 19 21 22 23 24 23 23 23 22 22 22 21 21 20 19 19 19 19 18 18 19 19 19 19 19 19 19 19 19 19 19 19 18 18 18 18 18 18 18 18 18 18 17 17 17 17 17
21 18 20 21 22 23 23 23 23 22 21 21 21 21 21 20 19 19 19 18 18 18 18 19 19 19 19 19 18 19 19 19 19 19 18 18 18 18 18 18 18 18 18 18 17 17 17 17 17
20 20 21 23 24 24 23 23 23 22 21 21 21 21 20 19 19 19 19 19 19 19 18 18 18 19 19 19 18 19 19 19 18 18 18 18 18 18 18 18 18 18 17 18 17 17 17 17 17
21 21 23 24 25 24 24 23 22 22 23 24 23 22 20 19 19 19 19 19 19 18 18 18 19 18 18 18 18 18 18 18 18 18 18 18 18 18 18 18 18 17 17 17 17 17 17 17 17
22 23 24 25 25 24 24 23 22 22 23 23 22 21 20 20 19 19 19 19 18 18 18 19 19 18 18 18 18 18 18 18 18 18 18 18 18 18 18 17 17 17 17 17 17 17 17 17 17
23 23 24 24 24 24 23 22 22 22 23 22 21 20 20 19 19 19 18 18 18 18 18 18 18 18 18 18 18 18 18 18 18 18 18 18 18 17 17 17 17 17 17 17 17 17 17 17 17
24 23 23 23 23 24 23 22 21 22 22 21 20 20 19 19 19 19 19 19 19 18 18 18 18 18 18 18 18 18 18 18 18 18 17 17 17 17 17 17 17 17 17 17 17 17 17 17 17
23 22 22 23 23 23 23 22 22 21 21 19 19 19 19 19 19 19 18 18 18 18 18 18 18 18 18 18 18 18 18 18 18 17 17 17 17 17 17 17 17 17 17 17 17 17 17 17 17
21 21 22 22 23 23 23 22 21 21 20 19 19 19 19 19 19 18 18 18 18 18 18 18 18 18 18 18 18 17 17 17 17 17 17 17 17 17 17 16 16 16 16 16 16 16 16 16 16
21 22 22 22 23 23 22 21 20 20 20 19 19 19 18 18 19 19 18 18 18 18 18 18 18 18 17 17 17 17 17 17 17 17 17 17 17 16 16 16 16 16 16 16 16 16 16 16 16
22 22 21 22 23 22 21 21 20 19 19 19 19 18 18 19 19 18 18 18 18 18 17 18 18 17 17 17 17 17 17 17 17 17 17 16 16 16 16 16 16 16 16 16 16 16 16 16 16
22 21 21 22 23 23 21 21 20 19 19 19 18 18 18 18 18 18 18 18 18 18 17 17 17 17 17 17 17 17 17 17 17 16 16 16 16 16 16 16 16 16 16 16 16 16 16 16 16
22 21 21 21 22 21 21 21 20 19 19 19 19 18 18 18 18 18 18 17 17 17 17 17 17 17 17 17 17 17 16 16 16 16 16 16 16 16 16 16 16 16 16 16 15 16 16 16 16
21 22 22 22 21 19 21 19 20 19 18 18 18 18 18 18 18 18 18 17 17 17 17 17 17 17 17 17 17 17 16 16 16 16 16 16 16 16 15 15 15 15 15 15 15 15 15 15 16
22 22 22 21 20 19 19 19 19 19 18 18 18 18 18 18 18 18 18 18 18 17 17 17 17 17 17 17 17 17 17 17 16 16 16 16 16 15 15 15 15 15 15 15 15 15 15 15 15
23 21 20 17 17 19 20 19 19 18 18 18 18 18 18 18 17 17 18 17 17 17 17 17 17 17 17 16 16 17 17 16 16 16 16 16 16 15 15 15 15 15 15 15 15 15 15 15 15
22 20 19 19 18 18 19 19 18 19 19 19 18 18 18 18 18 17 17 17 17 17 17 17 17 17 17 16 16 16 16 16 16 16 16 16 16 15 15 15 15 15 15 15 15 15 15 15 15
21 20 19 19 19 18 18 18 19 20 19 19 19 19 18 18 18 18 18 18 18 17 17 17 17 17 17 17 16 16 16 16 16 16 16 16 16 16 15 15 15 15 15 15 15 15 15 15 15
21 19 19 18 18 18 18 18 19 19 19 18 18 18 18 18 18 18 18 18 18 18 18 17 17 17 17 17 17 17 16 16 16 16 16 16 16 15 15 15 15 15 14 14 14 14 14 14 14
21 18 16 17 18 19 19 19 19 20 19 18 17 17 18 18 18 18 19 18 18 18 18 18 17 17 17 17 17 17 17 16 16 16 16 16 16 15 15 15 15 15 14 14 14 14 14 14 14
20 19 17 15 17 18 18 19 19 19 19 18 17 18 18 18 19 19 19 19 18 18 18 18 17 17 17 17 17 17 17 16 16 16 16 16 16 15 15 15 15 15 14 14 14 14 14 14 14
20 19 17 18 17 16 17 18 20 19 18 17 18 18 19 19 19 19 19 19 18 18 18 18 17 17 17 17 17 17 17 16 16 16 16 16 15 15 15 15 15 15 14 14 14 14 14 14 14
Wind_Speed
5 4 2 1 4 4 2 3 2 1 1 1 3 3 5 5 4 3 4 14 17 17 17 22 22 22 21 20 20 20 20 19 19 18 18 17 17 16 16 15 15 15 15 15 15 15 15 15 15
4 3 2 3 4 2 4 3 3 3 3 3 3 3 3 2 3 6 8 12 18 17 17 20 23 22 21 21 20 20 19 19 18 17 17 16 16 16 15 15 15 15 15 15 15 15 15 15 14
3 2 3 4 2 3 4 3 3 2 3 2 2 3 2 2 5 7 8 15 16 15 17 21 24 22 21 20 20 19 19 18 18 17 16 16 16 15 15 15 15 15 15 15 15 15 14 14 14
3 3 4 4 2 5 5 4 3 5 2 2 3 3 2 2 4 7 14 17 17 13 16 21 24 23 21 20 19 19 18 17 17 16 15 15 15 15 15 14 14 14 14 14 14 14 14 13 12
3 4 4 2 4 5 4 4 5 5 4 3 4 4 1 3 7 15 17 17 17 14 13 20 23 22 22 20 19 18 18 17 16 16 15 15 15 14 14 14 13 13 14 14 13 13 13 11 10
4 4 3 2 4 4 2 2 3 3 3 3 5 4 1 2 10 15 15 15 15 15 12 18 23 22 21 20 19 18 17 17 16 15 15 14 14 13 13 13 13 13 13 12 12 12 11 10 9
4 4 3 3 3 4 2 1 3 4 4 3 5 5 1 4 8 12 12 12 12 12 11 12 18 20 20 20 19 18 17 16 16 15 14 14 13 13 12 12 12 12 11 11 11 10 10 9 9
5 4 1 3 4 4 2 1 1 3 3 3 5 7 5 7 11 12 12 11 10 9 9 9 12 15 16 17 19 18 17 16 15 14 14 13 13 12 11 10 11 10 10 10 9 8 8 8 8
4 4 3 5 5 4 2 1 1 1 4 2 1 2 5 15 15 15 12 10 11 11 8 9 9 11 13 14 17 17 17 16 15 14 14 12 10 10 9 9 9 9 9 8 8 7 7 7 7
4 4 7 6 5 4 3 3 4 3 3 2 1 4 12 17 17 18 17 16 15 14 11 9 10 9 11 12 13 12 13 13 11 10 10 9 9 8 8 8 8 8 8 7 7 6 7 7 6
7 7 5 6 6 4 3 3 4 7 5 8 9 12 16 16 15 16 16 15 14 14 13 10 10 9 9 6 9 8 9 9 9 10 10 9 8 6 5 4 5 5 6 6 6 6 6 5 5
6 7 6 5 3 3 4 4 4 6 8 7 10 16 18 18 18 17 16 15 13 14 13 11 10 9 8 7 7 7 6 7 7 8 10 9 5 4 4 3 4 4 5 5 5 5 5 5 4
6 5 5 6 5 4 4 4 4 5 4 6 11 15 17 18 15 12 12 12 12 13 13 12 11 10 8 7 6 7 6 6 8 8 9 9 6 4 4 4 4 4 4 4 4 4 4 3 3
4 4 5 5 4 3 5 3 3 5 5 10 13 14 15 15 14 12 13 13 13 13 12 11 11 9 8 6 6 6 7 8 8 7 8 9 8 6 4 4 3 3 4 4 4 4 3 2 2
2 3 6 3 1 2 4 1 5 5 9 10 12 12 13 12 12 14 14 14 13 13 11 10 10 9 9 8 7 6 7 8 7 7 9 9 9 8 6 4 3 3 5 5 5 4 3 2 2
3 3 4 5 1 1 5 6 6 6 10 10 10 11 11 10 11 11 10 10 10 10 11 11 12 10 9 7 6 5 7 7 6 8 8 9 9 9 7 4 3 5 5 5 3 3 3 2 2
5 2 4 6 2 2 2 6 4 6 10 10 10 11 11 10 9 10 11 11 11 11 11 11 10 10 9 8 6 5 6 6 7 8 8 8 9 10 8 5 5 7 5 3 3 2 2 2 2
3 3 4 6 4 1 4 7 5 6 9 10 9 9 10 11 12 11 11 11 11 11 11 10 10 10 9 7 5 4 4 4 5 6 8 10 9 9 8 5 6 7 4 3 3 3 2 2 2
4 4 8 9 6 3 7 7 5 6 7 8 8 8 9 10 8 9 10 9 10 10 11 11 10 10 9 7 7 6 5 4 4 4 8 10 10 10 8 5 5 5 4 4 4 3 3 2 2
5 6 8 8 3 1 4 5 4 5 7 8 9 10 9 8 8 9 9 9 11 12 11 10 10 10 9 7 6 4 5 4 3 3 6 9 11 10 8 7 5 5 5 4 4 3 3 2 2
6 6 7 7 4 3 2 6 2 2 3 3 5 7 8 10 12 11 10 9 9 10 11 11 10 9 9 8 6 6 5 4 3 3 4 5 9 10 9 8 7 5 5 5 4 4 5 3 2
6 7 7 5 1 4 2 4 7 3 4 5 7 8 9 9 10 10 11 10 11 10 9 9 9 9 8 10 10 11 7 6 5 4 4 4 7 9 9 9 8 6 4 5 4 4 3 4 3
7 2 2 1 3 1 1 2 8 1 5 9 10 10 11 11 12 11 11 11 10 10 10 9 9 9 8 9 11 10 7 5 4 5 6 5 4 6 8 9 8 6 5 5 4 4 4 3 4
4 5 6 5 4 1 3 3 7 5 8 7 10 11 11 11 11 10 9 8 8 9 9 9 9 9 9 10 9 10 10 9 9 7 7 5 4 3 5 7 7 6 5 5 4 4 5 4 4
4 5 4 5 4 6 2 3 9 8 7 8 10 12 12 12 12 12 12 11 10 10 10 10 10 9 10 10 9 9 10 11 11 9 8 7 5 4 5 5 5 5 5 5 5 4 4 4 5
4 8 7 5 5 6 2 6 8 5 4 4 6 9 11 12 12 13 13 13 12 12 11 11 11 10 10 10 9 8 9 7 7 8 8 8 6 5 6 6 6 6 6 6 5 4 3 4 4
5 4 6 7 3 2 6 7 9 2 2 2 4 7 12 13 13 13 13 13 12 13 12 13 12 10 10 10 9 8 9 8 8 8 7 6 6 6 7 7 6 6 6 6 6 4 4 4 4
4 7 6 6 5 4 5 5 5 7 6 5 5 8 10 11 12 12 12 12 12 11 10 11 11 11 10 10 10 9 9 9 8 8 8 8 7 7 8 7 7 6 6 6 5 5 4 5 4
3 4 5 4 4 6 4 7 7 8 7 7 8 8 10 12 13 13 12 12 11 10 11 11 11 10 10 10 9 9 9 8 9 8 9 8 7 8 9 9 8 8 7 7 6 5 6 6 4
3 5 7 5 4 5 4 8 6 6 5 6 6 7 8 10 11 11 12 12 12 12 11 12 11 11 11 10 9 9 9 9 9 9 9 8 8 8 9 8 8 8 8 8 8 7 7 6 6
Wind_Direction
197 160 147 107 57 46 290 260 234 198 205 172 147 148 147 153 180 203 129 143 140 147 154 152 149 145 141 137 133 130 128 127 125 124 124 124 123 121 119 117 114 111 109 108 107 107 106 106 108
139 148 109 67 79 34 281 243 216 207 176 123 95 89 92 100 81 114 135 146 144 147 151 153 151 148 144 141 137 134 132 130 128 127 127 127 126 124 121 119 116 114 112 110 109 108 108 109 111
146 149 91 75 113 195 246 232 198 134 132 121 99 67 92 136 132 143 153 146 143 146 150 156 153 151 148 144 141 138 136 134 132 131 131 130 129 127 124 121 118 116 115 113 111 111 111 111 114
119 65 61 72 240 235 232 238 196 146 139 93 122 107 78 69 147 147 143 146 144 146 151 159 156 154 151 148 146 142 140 138 136 136 135 133 131 130 128 124 120 118 115 114 113 112 111 111 114
70 84 65 359 264 262 253 230 180 162 166 138 135 134 88 4 118 135 145 149 149 148 155 161 158 157 155 153 150 147 144 143 140 139 138 137 135 132 130 127 123 120 117 115 113 112 109 109 113
66 74 88 266 272 280 278 207 160 150 147 135 137 131 61 90 130 142 147 149 151 152 154 161 162 160 159 157 154 152 150 148 145 144 143 140 139 136 131 130 126 121 118 116 114 110 104 103 108
117 114 171 230 266 280 248 160 146 146 148 171 147 131 144 139 141 138 138 141 146 151 154 158 163 163 162 161 158 156 154 153 150 149 148 146 144 141 137 134 130 125 120 117 113 108 101 98 103
137 115 191 242 235 251 227 93 107 136 161 129 136 156 183 164 142 133 131 135 143 150 156 155 159 159 160 163 162 160 158 157 155 155 154 152 149 146 144 139 135 129 125 120 114 107 100 94 100
114 88 220 228 216 233 196 106 16 96 117 120 143 176 158 141 141 138 139 142 154 161 160 156 156 156 157 162 167 163 162 162 160 160 160 154 146 146 145 145 143 137 133 125 116 109 101 92 98
121 172 228 222 209 208 224 195 177 142 144 181 134 105 133 145 153 156 160 164 169 171 169 164 161 158 155 166 165 160 160 160 157 157 152 141 141 146 149 157 152 146 139 126 114 104 93 86 85
174 204 236 243 224 206 214 198 169 152 205 209 189 161 152 158 163 167 170 172 174 173 171 168 165 159 157 154 154 152 147 149 150 152 147 143 143 147 143 144 137 130 123 103 96 89 85 84 85
195 240 235 255 210 189 199 174 171 189 221 207 178 160 161 169 174 177 175 174 171 171 172 168 166 161 160 153 154 149 146 149 154 156 153 148 145 142 140 131 120 112 108 102 95 91 85 80 81
221 260 257 248 252 218 186 189 189 224 235 142 143 156 170 177 177 177 175 172 172 174 172 171 169 166 163 153 159 157 152 158 162 160 162 161 155 154 149 141 134 128 124 121 112 101 94 85 72
236 254 283 279 259 208 175 202 165 230 161 139 152 167 177 181 178 173 174 177 179 180 176 171 170 166 160 158 162 158 159 162 163 167 172 169 163 159 151 140 140 142 143 135 125 117 109 92 80
296 310 320 303 241 198 129 281 228 201 147 152 166 174 180 183 180 182 184 181 180 179 174 172 170 163 164 165 169 163 165 165 165 170 175 173 167 160 153 146 149 159 151 134 115 103 94 83 75
12 22 325 299 282 175 139 248 249 167 156 168 177 180 184 189 188 185 184 179 173 170 171 175 179 170 170 167 165 161 165 163 166 168 171 171 168 164 156 155 156 157 144 133 121 106 93 81 80
25 352 285 301 287 130 175 249 250 174 174 182 185 185 185 184 187 189 185 176 171 171 173 174 170 168 171 166 160 158 155 159 165 162 162 165 166 165 159 157 152 148 136 129 132 101 109 111 101
252 273 278 281 282 324 262 253 252 191 188 189 187 183 181 184 192 185 182 176 172 172 173 172 165 167 165 157 147 144 145 155 151 156 160 159 160 161 155 148 145 143 132 128 123 115 88 95 103
208 247 271 273 272 261 257 260 242 193 189 191 192 186 185 191 183 174 174 170 167 170 171 172 167 168 165 165 166 167 169 164 159 163 160 157 155 157 152 144 139 141 143 149 143 122 102 74 81
220 263 275 291 317 218 271 277 238 195 202 197 194 193 189 178 167 169 171 174 175 174 174 171 169 171 171 170 165 156 146 146 152 151 151 156 155 157 157 148 149 144 135 135 139 132 120 87 73
245 227 250 265 324 9 345 318 277 231 205 196 195 190 186 182 180 178 176 178 172 175 176 176 172 170 167 158 139 130 111 101 121 143 149 154 156 157 151 152 148 146 146 152 155 149 136 127 71
259 237 227 249 285 294 42 294 285 237 230 217 204 191 188 184 179 179 177 177 175 181 178 169 169 168 165 159 160 158 161 162 175 163 149 141 149 150 151 152 148 144 143 146 154 145 134 133 132
222 248 192 225 170 307 355 205 285 258 237 233 215 201 191 185 179 179 180 176 174 172 168 164 162 163 163 161 162 161 156 149 139 135 135 134 137 148 153 150 145 142 141 144 140 136 134 134 145
180 69 56 50 73 295 242 188 275 236 225 231 212 202 193 184 179 178 174 166 167 165 163 163 162 164 163 162 163 165 159 152 147 149 152 149 142 142 147 147 144 144 142 144 143 138 137 135 132
108 91 24 356 2 256 252 214 250 252 229 219 207 198 188 179 176 175 174 175 175 174 171 167 167 166 165 166 167 169 166 163 164 164 164 159 155 158 164 152 150 150 152 148 138 131 134 139 138
175 144 161 207 232 273 289 239 256 268 248 231 206 189 180 179 179 180 181 180 180 179 175 171 171 168 168 170 170 166 163 165 166 166 166 168 168 165 161 155 156 155 152 148 139 131 137 136 136
146 178 167 146 174 250 276 281 300 268 275 222 187 177 186 186 184 183 180 180 181 180 178 176 173 171 172 172 165 163 164 164 165 163 160 163 160 158 157 157 155 155 152 148 142 140 140 137 136
144 146 109 134 160 240 280 274 260 274 258 236 206 196 191 186 183 181 180 181 181 179 174 170 171 173 169 167 170 173 171 170 165 161 164 166 165 158 158 162 161 158 154 150 145 143 145 142 143
110 108 114 123 158 170 243 269 230 238 239 224 218 204 192 188 187 185 182 180 176 170 170 170 170 166 168 170 170 166 170 169 166 168 172 171 168 164 168 170 167 166 164 161 157 160 158 156 157
164 165 151 159 213 187 192 264 266 247 246 217 209 200 193 191 189 184 177 174 173 174 175 176 176 176 176 172 169 169 168 166 169 174 175 172 172 173 174 170 170 174 173 171 171 173 173 173 177
Height
1489 1489 1490 1492 1494 1502 1502 1492 1485 1484 1483 1482 1482 1484 1485 1488 1492 1496 1490 1491 1496 1501 1505 1510 1513 1517 1519 1522 1524 1525 1527 1529 1530 1532 1533 1534 1535 1536 1537 1538 1539 1540 1541 1542 1543 1544 1545 1546 1547
1489 1489 1492 1492 1500 1510 1502 1488 1485 1482 1481 1482 1483 1484 1485 1486 1487 1488 1488 1492 1497 1501 1506 1510 1514 1517 1520 1523 1525 1527 1529 1530 1532 1533 1535 1536 1537 1538 1539 1540 1541 1542 1543 1544 1545 1546 1547 1548 1550
1489 1490 1492 1494 1501 1506 1496 1484 1481 1480 1481 1482 1483 1484 1485 1486 1486 1487 1489 1493 1498 1502 1506 1511 1514 1518 1521 1524 1526 1528 1530 1532 1533 1535 1536 1538 1539 1540 1541 1542 1543 1544 1545 1546 1547 1549 1550 1551 1552
1489 1491 1493 1498 1500 1493 1486 1480 1479 1481 1482 1482 1483 1485 1486 1487 1487 1488 1490 1494 1499 1503 1507 1511 1515 1519 1522 1525 1527 1529 1531 1533 1535 1536 1538 1539 1541 1542 1543 1544 1545 1546 1547 1549 1550 1551 1552 1553 1555
1489 1490 1496 1503 1497 1487 1479 1477 1478 1480 1481 1482 1483 1485 1486 1487 1486 1488 1491 1495 1499 1503 1508 1512 1516 1519 1522 1525 1528 1530 1532 1534 1536 1538 1539 1541 1542 1544 1545 1546 1547 1548 1549 1551 1552 1553 1555 1556 1557
1489 1491 1503 1505 1495 1484 1478 1476 1477 1479 1480 1481 1483 1484 1485 1486 1487 1489 1492 1496 1500 1504 1508 1513 1516 1520 1523 1526 1529 1531 1533 1535 1537 1539 1541 1543 1544 1546 1547 1548 1549 1550 1552 1553 1554 1556 1557 1558 1559
1489 1494 1500 1497 1493 1485 1478 1477 1477 1478 1480 1481 1482 1484 1485 1486 1488 1490 1493 1497 1501 1504 1508 1512 1517 1520 1524 1527 1529 1532 1534 1536 1538 1540 1542 1544 1546 1547 1549 1550 1551 1553 1554 1555 1557 1558 1559 1560 1561
1487 1492 1495 1496 1491 1485 1477 1477 1477 1478 1480 1481 1482 1483 1483 1485 1488 1491 1494 1497 1501 1505 1508 1512 1516 1520 1523 1527 1530 1532 1535 1537 1539 1541 1543 1545 1547 1549 1550 1552 1553 1554 1556 1557 1558 1560 1561 1562 1563
1485 1495 1499 1492 1487 1481 1476 1477 1478 1478 1478 1479 1480 1481 1481 1483 1486 1490 1493 1497 1501 1505 1508 1512 1516 1520 1523 1526 1530 1532 1535 1537 1540 1542 1544 1546 1548 1550 1551 1553 1554 1556 1557 1558 1560 1561 1562 1564 1565
1484 1495 1489 1480 1477 1476 1475 1476 1477 1477 1478 1479 1479 1479 1480 1482 1485 1487 1489 1493 1498 1502 1507 1511 1515 1519 1522 1526 1529 1532 1535 1537 1540 1542 1544 1547 1548 1550 1552 1554 1555 1557 1558 1560 1561 1562 1564 1565 1566
1481 1484 1478 1474 1473 1473 1473 1474 1475 1476 1478 1475 1474 1476 1478 1481 1484 1486 1489 1492 1496 1500 1505 1510 1514 1518 1522 1525 1527 1531 1534 1537 1540 1542 1545 1547 1549 1551 1553 1555 1556 1558 1559 1561 1562 1563 1565 1566 1567
1479 1475 1474 1471 1470 1471 1471 1472 1474 1474 1472 1471 1472 1473 1476 1479 1481 1484 1487 1491 1496 1499 1503 1508 1513 1517 1521 1525 1527 1531 1534 1537 1540 1543 1545 1547 1549 1552 1554 1555 1557 1559 1560 1561 1563 1564 1566 1567 1568
1476 1473 1470 1469 1468 1468 1469 1470 1471 1471 1470 1470 1471 1474 1475 1477 1479 1483 1487 1491 1495 1498 1502 1507 1512 1516 1520 1524 1528 1530 1534 1537 1540 1543 1545 1548 1550 1552 1554 1556 1558 1559 1561 1562 1563 1565 1566 1568 1569
1472 1470 1469 1466 1465 1466 1467 1468 1470 1467 1468 1469 1470 1472 1474 1476 1479 1482 1485 1489 1493 1497 1502 1506 1510 1515 1519 1523 1527 1530 1534 1537 1540 1543 1545 1548 1550 1552 1554 1556 1558 1560 1561 1562 1564 1565 1566 1568 1569
1470 1471 1469 1465 1465 1465 1467 1471 1467 1465 1466 1468 1470 1471 1473 1475 1478 1481 1483 1487 1491 1496 1501 1505 1510 1514 1519 1523 1527 1530 1533 1537 1540 1542 1545 1547 1550 1552 1554 1556 1558 1560 1561 1563 1564 1565 1566 1568 1569
1471 1475 1478 1468 1465 1464 1470 1475 1465 1464 1465 1467 1469 1470 1472 1474 1477 1480 1484 1487 1491 1496 1500 1505 1509 1513 1518 1521 1526 1530 1533 1536 1539 1542 1544 1547 1550 1552 1553 1555 1557 1559 1561 1562 1563 1564 1566 1567 1568
1480 1484 1481 1472 1464 1465 1469 1471 1463 1463 1464 1465 1466 1468 1470 1473 1476 1478 1481 1486 1490 1495 1499 1503 1507 1511 1516 1520 1525 1529 1532 1535 1538 1541 1544 1546 1548 1551 1553 1555 1556 1558 1560 1562 1563 1564 1565 1566 1568
1485 1483 1480 1476 1466 1465 1469 1467 1462 1462 1462 1463 1464 1467 1469 1470 1472 1475 1479 1483 1488 1493 1497 1501 1505 1509 1514 1519 1523 1527 1530 1534 1537 1540 1542 1545 1547 1550 1552 1554 1556 1557 1559 1561 1562 1564 1565 1566 1567
1475 1478 1480 1472 1463 1465 1466 1465 1462 1460 1461 1462 1463 1465 1467 1468 1471 1474 1478 1483 1486 1490 1494 1499 1503 1507 1512 1516 1520 1523 1527 1531 1535 1538 1541 1544 1546 1548 1551 1552 1554 1556 1558 1560 1561 1562 1564 1565 1566
1473 1478 1477 1468 1460 1463 1466 1464 1459 1459 1459 1459 1461 1463 1464 1467 1470 1472 1476 1480 1483 1487 1491 1496 1500 1505 1509 1513 1518 1522 1526 1530 1533 1537 1540 1542 1545 1547 1549 1551 1553 1555 1557 1559 1560 1561 1562 1563 1565
1472 1475 1473 1471 1464 1463 1466 1468 1463 1459 1460 1460 1461 1462 1464 1465 1467 1470 1474 1478 1482 1485 1489 1493 1498 1503 1507 1512 1516 1520 1525 1528 1532 1535 1538 1541 1543 1546 1548 1550 1552 1554 1556 1557 1559 1560 1561 1563 1564
1473 1462 1463 1465 1473 1479 1473 1486 1467 1461 1460 1459 1459 1460 1462 1464 1466 1469 1472 1476 1479 1483 1488 1492 1497 1501 1505 1510 1514 1518 1522 1525 1529 1533 1536 1539 1542 1545 1547 1549 1551 1553 1555 1556 1558 1559 1560 1562 1563
1462 1457 1461 1465 1472 1479 1477 1484 1474 1462 1462 1457 1455 1456 1458 1461 1464 1467 1470 1474 1478 1482 1486 1491 1495 1500 1504 1508 1512 1517 1521 1525 1529 1532 1535 1538 1541 1544 1546 1548 1550 1552 1554 1555 1557 1558 1560 1561 1563
1453 1460 1466 1474 1480 1489 1478 1483 1478 1464 1456 1451 1450 1452 1455 1459 1462 1466 1470 1474 1477 1481 1485 1490 1494 1498 1502 1506 1511 1516 1520 1524 1527 1530 1534 1537 1540 1542 1545 1547 1550 1551 1553 1555 1556 1558 1559 1560 1562
1456 1472 1490 1491 1499 1494 1477 1480 1473 1450 1446 1445 1445 1448 1451 1456 1460 1464 1468 1472 1476 1480 1484 1488 1492 1496 1500 1505 1510 1514 1518 1522 1526 1529 1532 1535 1538 1541 1544 1546 1548 1551 1552 1554 1555 1557 1558 1559 1560
1458 1467 1489 1497 1500 1491 1479 1479 1460 1444 1442 1441 1442 1445 1448 1452 1457 1461 1465 1469 1473 1478 1482 1486 1490 1494 1499 1503 1508 1512 1517 1520 1524 1528 1531 1534 1537 1540 1543 1545 1548 1550 1551 1553 1554 1556 1557 1558 1559
1458 1465 1465 1482 1486 1490 1483 1471 1454 1442 1441 1441 1441 1443 1445 1449 1453 1457 1462 1467 1471 1475 1479 1484 1488 1493 1497 1502 1506 1510 1515 1519 1523 1526 1530 1533 1537 1539 1542 1544 1546 1548 1550 1552 1553 1555 1556 1557 1558
1449 1458 1473 1482 1492 1493 1481 1473 1464 1446 1443 1441 1441 1441 1443 1446 1450 1455 1459 1464 1469 1473 1478 1482 1487 1491 1496 1500 1505 1509 1513 1517 1521 1525 1528 1532 1535 1538 1540 1543 1545 1547 1549 1550 1552 1553 1555 1556 1557
1454 1460 1469 1479 1481 1490 1490 1476 1445 1442 1439 1439 1438 1439 1441 1444 1447 1452 1456 1462 1467 1472 1476 1480 1485 1490 1494 1499 1503 1507 1511 1515 1519 1523 1527 1530 1533 1536 1539 1541 1543 1545 1547 1549 1550 1552 1553 1554 1555
1449 1455 1465 1475 1478 1481 1483 1471 1436 1436 1434 1435 1436 1437 1439 1442 1446 1450 1454 1459 1464 1469 1474 1478 1483 1487 1492 1497 1501 1505 1509 1513 1517 1521 1524 1528 1531 1534 1537 1539 1542 1544 1546 1547 1549 1550 1552 1553 1554